Regional Weather Roundup
Issued by NWS

Home | Current Version | Previous Version | Graphics & Text | Print | Product List | Glossary On
Versions: 1 2 3 4 5 6 7 8 9 10 11 12 13 14 15 16 17 18 19 20 21 22 23 24 25 26 27 28 29 30 31 32 33 34 35 36 37 38 39 40 41 42 43 44 45 46 47 48 49 50
000
ASUS43 KFSD 301202
RWRSD

WEATHER ROUNDUP FOR SOUTH DAKOTA
NATIONAL WEATHER SERVICE SIOUX FALLS SD
700 AM CDT SUN APR 30 2017

NOTE: "FAIR" INDICATES FEW OR NO CLOUDS BELOW 12,000 FEET WITH NO
SIGNIFICANT WEATHER AND/OR OBSTRUCTIONS TO VISIBILITY.


SDZ001>005-009-010-012>017-301300-
NORTHWEST AND NORTH CENTRAL SOUTH DAKOTA

CITY           SKY/WX    TMP DP  RH WIND       PRES   REMARKS
BUFFALO          N/A     35  22  58 W5        30.00F
FAITH            N/A     35  23  61 N5        30.07F
MOBRIDGE       CLEAR     31  21  66 NW3       30.07F
$$

SDZ012>016-024>037-041>051-057-063-072>074-301300-
SOUTHWEST AND SOUTH CENTRAL SOUTH DAKOTA

CITY           SKY/WX    TMP DP  RH WIND       PRES   REMARKS
RAPID CTY ARPT CLEAR     32  20  61 NW10      30.06F WCI  24
PIERRE         PTCLDY    35  23  61 N8        30.06S WCI  29
CUSTER         CLEAR     27  14  58 NW5       30.04F WCI  22
ELLSWORTH AFB  CLEAR     31  21  66 N12       30.05F WCI  22
PHILIP         CLOUDY    23  20  88 W6        30.08S WCI  16
PINE RIDGE     CLOUDY    22  19  89 CALM      30.06S
SPEARFISH      FAIR      32  18  55 CALM      30.08S
WINNER         FAIR      32  25  75 NW6       30.05R WCI  26
$$

SDZ004>011-016>023-039-040-301300-
NORTHEAST SOUTH DAKOTA

CITY           SKY/WX    TMP DP  RH WIND       PRES   REMARKS
ABERDEEN       PTCLDY    31  26  82 N3        30.08F
WATERTOWN      MOCLDY    34  24  67 N9        30.04F WCI  27
BROOKINGS      CLOUDY    38  25  59 NE9       30.01F
SISSETON         N/A     37  28  70 NE7       30.09F
$$

SDZ017-020-022-023-036>040-048>070-301300-
SOUTHEAST SOUTH DAKOTA

CITY           SKY/WX    TMP DP  RH WIND       PRES   REMARKS
SIOUX FALLS    CLOUDY    44  30  57 NE10      29.97F
HURON          MOCLDY    38  27  64 NE10      30.05S
CHAMBERLAIN    MOCLDY    40  28  63 NW8       30.05R
MITCHELL       MOCLDY    39  29  67 N9        30.03S
YANKTON        CLOUDY    39  34  81 NE10      29.96S
$$

ABBREVIATIONS USED IN REMARKS
   TC - TEMPERATURE IN CELSIUS
  WCI - WIND CHILL INDEX
   HX - HEAT INDEX
  VSB - VISIBILITY




USA.gov is the U.S. government's official web portal to all federal, state and local government web resources and services.